User: anonymous
Location: Wildcat Hills Observatory
(41.6350°N, 103.6812°W)
Time: 07:35:06
(UTC-06:00)
Language:

Cosmos 1634 Rocket - Orbit

View from above orbital plane
View from above orbital plane
View from above satellite
View from above satellite

Ground track
Ground track

The orbit data is extracted from the following two-line orbital elements,

1 15598U 85022B   14105.99322292  .00000137  00000-0  12363-3 0  6271
2 15598 082.9374 247.9163 0023610 108.4538 030.7363 13.76483376461131
Epoch (UTC): 15 April 2014 23:50:14
Eccentricity: 0.0023610
inclination: 82.9374°
perigee height: 959 km
apogee height: 994 km
right ascension of ascending node: 247.9163°
argument of perigee: 108.4538°
revolutions per day: 13.76483376
mean anomaly at epoch: 30.7363°
orbit number at epoch: 46113

The dashed part of the orbit path shows where the satellite is in the earth's shadow,  

DLR